カタログに戻る

BLOCK DM-SL DEB

運用中GEO
NORAD 46091·DEBRIS·🇷🇺 Russia

打ち上げ Dec 24, 2019 から Baikonur Cosmodrome

Loading…

TLE

最新Source: Space-Track

元期: Sep 13, 2026, 14:48 UTC

1 46091U 19095E   26256.61724406 -.00000102  00000-0  00000-0 0  9999
2 46091   5.5369  72.1962 0049854 191.9857 168.1391  1.03274791 24657

AllMySatでBLOCK DM-SL DEBをリアルタイム追跡

Download on the App Store